Location: *
(39.6167°S, 171.5333°W)
Time: 05:04:53
(UTC+00:00)

Cosmos 2082 - Pass Details

Date: 13 May 2021
Orbit: 833 x 856 km, 71.0° (Epoch: 16 June)

Event Time Altitude Azimuth Distance (km) Brightness Sun altitude
Exits shadow 16:28:11 14° 329° (NNW) 2,216 5.6 -22.0°
Maximum altitude 16:33:10 71° 246° (WSW) 915 3.6 -21.0°
Drops below altitude 10° 16:38:56 10° 161° (SSE) 2,510 6.3 -19.9°
Sets 16:41:26 0° 159° (SSE) 3,449 7.0 -19.5°
